Prescott, AZ

5:49 PM MST on November 13, 2019 (GMT -0700)
Love

Weather History for KPRC - September, 2019

Change the Weather History Date:

Sunday, September 8, 2019

  Actual Average Record
Temperature  
Mean Temperature 72 °F 70 °F  
Max Temperature 82 °F 84 °F 94 °F (1979)
Min Temperature 61 °F 56 °F 47 °F (1985)
Degree Days  
Heating Degree Days 0    
Month to date heating degree days 0  
Since 1 July heating degree days 0  
Cooling Degree Days 6    
Month to date cooling degree days 100  
Year to date cooling degree days 1075  
Growing Degree Days 22 (Base 50)    
Moisture  
Dew Point 48 °F    
Average Humidity 46    
Maximum Humidity 70    
Minimum Humidity 26    
Precipitation  
Precipitation 0.00 in 0.05 in 0.91 in (1986)
Month to date precipitation 1.20 0.46  
Year to date precipitation 9.31 10.12  
Sea Level Pressure  
Sea Level Pressure 29.80 in    
Wind  
Wind Speed 7 mph ()    
Max Wind Speed 26 mph    
Max Gust Speed 33 mph    
Visibility 10.0 miles    
Events      
T = Trace of Precipitation, MM = Missing Value Source: Averaged Metar Reports

Daily Weather History Graph

Daily Weather History Graph

Search for Another Location

Airport or City:

Astronomy

Sep. 08, 2019 Rise Set
Actual Time 6:07 AM MST 6:46 PM MST
Civil Twilight 5:42 AM MST 7:11 PM MST
Nautical Twilight 5:12 AM MST 7:41 PM MST
Astronomical Twilight 4:41 AM MST 8:12 PM MST
Moon 3:46 PM MST (9/8) 1:02 AM MST (9/8)
Length of Visible Light 13h 29m
Length of Day
12h 38m
Waxing Gibbous, 76% of the Moon is Illuminated
Sep 8
Waxing Gibbous
Sep 13
Full
Sep 21
Last Quarter
Sep 28
New
Oct 5
First Quarter

Hourly Weather History & Observations

Time (MST) Temp. Dew Point Humidity Pressure Visibility Wind Dir Wind Speed Gust Speed Precip Events Conditions
12:53 AM 66.0 °F 46.9 °F 50% 29.80 in 10.0 mi South 5.8 mph - N/A   Clear
1:53 AM 62.1 °F 46.9 °F 58% 29.81 in 10.0 mi Calm Calm - N/A   Clear
2:53 AM 63.0 °F 44.1 °F 50% 29.81 in 10.0 mi SSE 8.1 mph - N/A   Clear
3:53 AM 64.9 °F 46.9 °F 52% 29.81 in 10.0 mi SSE 6.9 mph - N/A   Clear
4:53 AM 64.0 °F 50.0 °F 60% 29.83 in 10.0 mi South 4.6 mph - N/A   Clear
5:53 AM 62.1 °F 52.0 °F 70% 29.83 in 10.0 mi SSW 4.6 mph - N/A   Clear
6:53 AM 64.0 °F 54.0 °F 70% 29.83 in 10.0 mi Calm Calm - N/A   Clear
7:53 AM 69.1 °F 51.1 °F 53% 29.83 in 10.0 mi SSW 12.7 mph - N/A   Clear
8:53 AM 71.1 °F 50.0 °F 47% 29.83 in 10.0 mi South 9.2 mph - N/A   Partly Cloudy
9:53 AM 73.9 °F 48.0 °F 40% 29.83 in 10.0 mi SSW 12.7 mph 18.4 mph N/A   Partly Cloudy
10:53 AM 77.0 °F 46.0 °F 33% 29.82 in 10.0 mi SW 17.3 mph 24.2 mph N/A   Scattered Clouds
11:53 AM 78.1 °F 48.9 °F 36% 29.79 in 10.0 mi SW 17.3 mph 23.0 mph N/A   Mostly Cloudy
12:53 PM 79.0 °F 48.9 °F 35% 29.79 in 10.0 mi SW 19.6 mph 29.9 mph N/A   Mostly Cloudy
1:53 PM 81.0 °F 45.0 °F 28% 29.78 in 10.0 mi SW 16.1 mph 31.1 mph N/A   Mostly Cloudy
2:53 PM 82.0 °F 44.1 °F 26% 29.76 in 10.0 mi SW 19.6 mph 31.1 mph N/A   Scattered Clouds
3:53 PM 81.0 °F 46.0 °F 29% 29.74 in 10.0 mi SSW 11.5 mph - N/A   Scattered Clouds
4:53 PM 79.0 °F 46.9 °F 32% 29.75 in 10.0 mi SW 15.0 mph 23.0 mph N/A   Scattered Clouds
5:53 PM 78.1 °F 48.9 °F 36% 29.75 in 10.0 mi SSW 10.4 mph - N/A   Scattered Clouds
6:53 PM 75.9 °F 46.0 °F 35% 29.76 in 10.0 mi WSW 10.4 mph - N/A   Clear
7:53 PM 72.0 °F 46.9 °F 41% 29.77 in 10.0 mi SSW 3.5 mph - N/A   Clear
8:53 PM 69.1 °F 48.9 °F 49% 29.80 in 10.0 mi SSW 5.8 mph - N/A   Clear
9:53 PM 66.0 °F 51.1 °F 59% 29.81 in 10.0 mi SSW 4.6 mph - N/A   Partly Cloudy
10:53 PM 63.0 °F 50.0 °F 63% 29.81 in 10.0 mi SSW 5.8 mph - N/A   Clear
11:53 PM 64.0 °F 45.0 °F 50% 29.81 in 10.0 mi SSW 9.2 mph - N/A   Mostly Cloudy